Flag for U.S.A. Weather past 2 weeks in New Bedford, Massachusetts, U.S.A.

Now
43 °F

Light rain. Mostly cloudy.


Feels Like: 39 °F
Forecast: 43 / 59 °F
Wind: 7 mph from Northeast

Location: New Bedford Regional Airport

Current Time: Apr 28, 2015 at 3:38:40 AM

Latest Report: Apr 28, 2015 at 2:53 AM


Visibility: 10 mi

Pressure: 29.63 "Hg

Humidity: 86%

Dew point: 39 °F

Location of New BedfordLocation

Historic Weather in New Bedford — Graph

°F

New Bedford temperature yesterday

Maximum temperature yesterday: 58 °F (at 2:53 PM)
Minimum temperature yesterday: 45 °F (at 12:53 AM)
Average temperature yesterday: 51 °F

Past Weeks' High & Low Weather Summary

 TemperatureHumidityPressure
High71 °F (Apr 21, 1:53 PM)100% (Apr 18, 3:59 AM)30.48 "Hg (Apr 18, 3:59 AM)
Low30 °F (Apr 16, 5:53 AM)14% (Apr 15, 2:53 PM)29.51 "Hg (Apr 27, 3:53 PM)
Average50 °F65%29.89 "Hg
* Reported Apr 13 1:53 AM — Apr 28 1:53 AM, New Bedford, Weather by CustomWeather, © 2015

Note: Actual official high and low records may vary slightly from our data, if they occured in-between our weather recording intervals... More about our weather records

Advertising

New Bedford weather history for previous 24 hours

 ConditionsComfort  
Time TempWeatherWind HumidityBarometerVisibility
1:53 AM
Tue, Apr 28
44 °FLight rain. Overcast.6 mph85%29.61 "Hg10 mi
12:53 AM44 °FLight rain. Overcast.7 mph89%29.61 "Hg10 mi
11:53 PM
Mon, Apr 27
46 °FLight rain. Mostly cloudy.6 mph89%29.62 "Hg10 mi
10:53 PM46 °FLight rain. Mostly cloudy.5 mph89%29.60 "Hg9 mi
9:53 PM48 °FPassing clouds.6 mph77%29.57 "Hg10 mi
8:53 PM47 °FOvercast.6 mph83%29.57 "Hg10 mi
7:53 PM48 °FOvercast.No wind80%29.57 "Hg10 mi
6:53 PM49 °FLight rain. Mostly cloudy.8 mph80%29.57 "Hg10 mi
5:53 PM55 °FMostly cloudy.6 mph49%29.54 "Hg10 mi
4:53 PM57 °FOvercast.8 mph42%29.52 "Hg10 mi
3:53 PM57 °FOvercast.8 mph42%29.51 "Hg10 mi
2:53 PM58 °FMostly cloudy.12 mph43%29.52 "Hg10 mi
1:53 PM56 °FOvercast.13 mph46%29.54 "Hg10 mi
12:53 PM56 °FMostly cloudy.9 mph46%29.54 "Hg10 mi
11:53 AM56 °FBroken clouds.6 mph47%29.55 "Hg10 mi
10:53 AM54 °FBroken clouds.7 mph51%29.57 "Hg10 mi
9:53 AM53 °FOvercast.7 mph52%29.58 "Hg10 mi
8:53 AM51 °FOvercast.7 mph54%29.59 "Hg10 mi
7:53 AM50 °FOvercast.8 mph54%29.59 "Hg10 mi
6:53 AM48 °FPassing clouds.3 mph59%29.59 "Hg10 mi
5:53 AM45 °FPassing clouds.No wind63%29.59 "Hg10 mi
4:53 AM47 °FOvercast.No wind61%29.58 "Hg10 mi
3:53 AM48 °FOvercast.5 mph59%29.59 "Hg10 mi
Weather by CustomWeather, © 2015

See weather overviewHow to use our weather pages